TimeEST,TemperatureF,Dew PointF,Humidity,Sea Level PressureIn,VisibilityMPH,Wind Direction,Wind SpeedMPH,Gust SpeedMPH,PrecipitationIn,Events,Conditions,WindDirDegrees,DateUTC
12:53 AM,28.0,24.1,85,29.96,10.0,NE,15.0,-,N/A,,Overcast,40,2013-03-06 05:53:00
1:53 AM,28.9,24.1,82,29.97,10.0,NNE,10.4,-,N/A,,Overcast,30,2013-03-06 06:53:00
2:53 AM,30.0,25.0,82,29.97,10.0,NNE,12.7,-,N/A,,Overcast,20,2013-03-06 07:53:00
3:53 AM,30.9,25.0,79,29.99,10.0,NE,13.8,-,N/A,,Overcast,40,2013-03-06 08:53:00
4:53 AM,30.9,25.0,79,30.00,10.0,NE,13.8,-,N/A,,Overcast,40,2013-03-06 09:53:00
5:11 AM,30.2,24.8,80,29.98,10.0,NNE,11.5,19.6,N/A,,Overcast,30,2013-03-06 10:11:00
5:53 AM,32.0,25.0,75,30.04,10.0,NE,13.8,-,N/A,,Overcast,40,2013-03-06 10:53:00
6:53 AM,32.0,24.8,75,30.04,10.0,NE,15.0,24.2,N/A,,Overcast,40,2013-03-06 11:53:00
7:53 AM,32.0,25.0,75,30.12,10.0,NNE,9.2,-,N/A,,Overcast,20,2013-03-06 12:53:00
8:53 AM,32.0,25.0,75,30.14,10.0,NE,13.8,19.6,N/A,,Overcast,40,2013-03-06 13:53:00
9:53 AM,33.1,26.1,75,30.14,10.0,ENE,12.7,-,N/A,,Overcast,60,2013-03-06 14:53:00
10:53 AM,34.0,26.1,73,30.17,10.0,NNE,9.2,-,N/A,,Overcast,30,2013-03-06 15:53:00
11:53 AM,35.1,27.0,72,30.18,10.0,NNE,8.1,-,N/A,,Overcast,20,2013-03-06 16:53:00
12:53 PM,37.0,27.0,67,30.18,10.0,North,6.9,-,N/A,,Overcast,10,2013-03-06 17:53:00
1:53 PM,37.0,27.0,67,30.17,10.0,ENE,6.9,-,N/A,,Overcast,60,2013-03-06 18:53:00
2:53 PM,37.9,27.0,65,30.17,10.0,NNW,6.9,-,N/A,,Overcast,330,2013-03-06 19:53:00
3:53 PM,37.9,28.0,68,30.18,10.0,NNE,5.8,-,N/A,,Overcast,20,2013-03-06 20:53:00
4:53 PM,39.0,27.0,62,30.19,10.0,NE,3.5,-,N/A,,Mostly Cloudy,40,2013-03-06 21:53:00
5:53 PM,37.9,27.0,65,30.20,10.0,Calm,Calm,-,N/A,,Overcast,0,2013-03-06 22:53:00
6:53 PM,37.0,27.0,67,30.21,10.0,West,10.4,-,N/A,,Overcast,270,2013-03-06 23:53:00
7:53 PM,36.0,28.0,73,30.22,10.0,West,6.9,-,N/A,,Overcast,260,2013-03-07 00:53:00
8:53 PM,36.0,28.0,73,30.23,10.0,WNW,9.2,-,N/A,,Overcast,300,2013-03-07 01:53:00
9:53 PM,35.1,28.0,76,30.24,10.0,WNW,8.1,-,N/A,,Overcast,300,2013-03-07 02:53:00
10:53 PM,34.0,27.0,75,30.25,10.0,WNW,6.9,-,N/A,,Overcast,300,2013-03-07 03:53:00
11:19 PM,35.6,28.4,75,30.22,10.0,WNW,5.8,-,N/A,,Overcast,300,2013-03-07 04:19:00
11:53 PM,35.1,28.0,76,30.25,10.0,WNW,8.1,-,N/A,,Overcast,300,2013-03-07 04:53:00